{"data":{"norad_id":65452,"intl_designator":"2025-194U","name":"STARLINK-35084","alt_names":[],"object_type":"PAYLOAD","status":"ACTIVE","operator":null,"country":"US","launch_date":"2025-09-03","launch_site_code":"AFWTR","launch_vehicle":null,"mission":null,"orbit_class":"UNKNOWN","rcs_meters":null,"size_class":null,"mass_kg":null,"dimensions":null,"purposes":["comms"],"wikipedia_slug":null,"has_3d_model":false,"image_url":null,"decayed_at":null,"tle_current":{"epoch":"2026-09-20T12:48:02.386944Z","epoch_age_seconds":112024,"freshness":"FRESH","line1":"1 65452U 25194U   26263.53336096  .00010952  00000+0  34127-3 0  9993","line2":"2 65452  97.2848 113.1870 0001723  94.0380 266.1060 15.33427549 59075","mean_motion":15.33427549,"eccentricity":0.0001723,"inclination_deg":97.2848,"raan_deg":113.187,"arg_perigee_deg":94.038,"mean_anomaly_deg":266.106,"bstar":0.00034127,"rev_number":5907,"period_min":93.90727334585,"perigee_km":464.41592182843,"apogee_km":466.77427190901,"semimajor_km":6843.7320968687,"source":"CELESTRAK","updated_at":"2026-09-21T09:00:35.612300Z"}}}